Starlink 31781

operational
NORAD ID: 59632 Int'l Des: 2024-082 Owner: SPXS Country: US Constellation: starlink
LEOCIRCULAR

Über Starlink 31781

Beschreibung wird geladen...

Live-Position

3D-Globus wird geladen...

Nächste Überflüge

Höhenverlauf

Altitude vs Time

uPlot chart will show altitude changes over time

Zweizeiliger Elementsatz

1 59632U 24082B 25259.05711095 .00001851 00000-0 76747-4 0 9992
2 59632 43.0023 31.9285 0001525 270.1464 89.9213 15.27586948 78309
Epoch: 16. Sept. 2025 • Age: 10 hours

Aktueller Status

Höhe 492.0 km
Geschwindigkeit 7.62 km/s
Subsatellitenpunkt -34.62°S, 83.97°E
Startdatum 3. Mai 2024
Alter 1.3 years
Typ internet

Technische Details

Klassifizierung Payload
Masse 730.00 kg
Trockenmasse 700.00 kg
Gesamtmasse 730.00 kg
Länge 0.30 m
Durchmesser 4.10 m
Spannweite 29.00 m
Form Box + pan
Hersteller SPXS
Bus-Typ Starlink V2M
Phasenstatus In Orbit
Besitzer/Staat SPXS/US

Große Konstellationen

Loading constellations...